#timestamp,LO_Frequency,Hit,StdDev 
1603305775.1,286047010.2,P
1603305795.9,286047010.7,P
1603305815.7,286047007.7,P
1603305835.5,286047006.5,Y
1603305855.4,286046996.9,P
1603305875.2,286046999.5,N
1603305895.1,286046999.5,N
1603305896.0,286046999.5,N
1603305915.8,286046999.0,N
1603305935.6,286046998.3,N
1603305955.5,286047000.0,N
1603305975.3,286046998.2,N
1603305995.1,286046998.4,N
1603306015.9,286046998.2,N
1603306035.7,286047000.3,N
1603306055.6,286047000.7,N
1603306075.4,286047002.8,N
1603306095.2,286047002.7,N
1603306115.1,286046999.7,N
1603306116.0,286046999.7,N
1603306135.8,286047000.1,N
1603306155.6,286047000.7,N
1603306175.5,286047002.3,N
1603306195.3,286046999.8,N
1603306215.2,286047002.5,N
1603306235.9,286047001.6,N
1603306255.7,286047002.0,N
1603306275.6,286047004.3,N
1603306295.4,286047004.4,N
1603306315.2,286047002.0,N
1603306335.1,286047001.5,N
1603306336.0,286047001.5,N
1603306355.8,286047002.6,N
1603306375.7,286047004.2,N
1603306395.5,286047002.5,N
1603306415.3,286046999.9,N
1603306435.2,286047000.5,N
1603306455.0,286047000.8,N
1603306455.9,286047000.8,N
1603306475.7,286047002.4,N
1603306495.6,286047003.6,N
1603306515.4,286047004.1,N
1603306535.3,286047004.0,N
1603306555.1,286047003.8,N
1603306556.0,286047003.8,N
1603306575.8,286047005.2,Y
1603306595.7,286047000.1,P
1603306615.5,286047000.9,N
1603306635.4,286046999.8,N
1603306655.2,286047002.1,N
1603306675.0,286047000.6,N
1603306675.9,286047000.6,N
1603306695.8,286047000.2,N
1603306715.6,286047001.4,N
1603306735.4,286047002.1,N
1603306755.3,286047002.2,N
1603306775.1,286047001.5,N
1603306795.9,286047004.3,Y
